 ■ 軌道要素2:「jamsat−keps:1262」より 
       SB KEPS @ AMSAT  $ORB02339.O
       Orbital Elements  02339.OSCAR

HR AMSAT ORBITAL ELEMENTS FOR OSCAR SATELLITES
FROM WA5QGD FORT WORTH,TX December 5, 2002
SEND SUBSCRIBE/UNSUBSCRIBE TO majordomo@amsat.org ONLY
BID: ORB02339.O
TO ALL RADIO AMATEURS BT

Satellite: FO-29
Catalog number: 24278
Epoch time:      02337.92392877
Element set:    0544
Inclination:      098.5272 deg
RA of node:       134.5909 deg
Eccentricity:    0.0351491
Arg of perigee:   055.2609 deg
Mean anomaly:     308.1103 deg
Mean motion:   13.52865113 rev/day
Decay rate:       -7.0e-08 rev/day^2
Epoch rev:           31094
Checksum:              311

-------------------  FO-29(JAS-2)のテレメトリに関する情報  ---------------------- 
 
2)上記2002年12月7日(土)のテレメトリの17:22のパスの最終行を分析して
 おきます。構体温度が全体的に下がって来ております。

AS31142C  07Dec2002
17:22-17:39(JST)
AOS   MEL  LOS  Elev
  3   288  214  42.2
Freq. 435.805-.787Hz
(JAS-2 No.111  B 1310-2120)

HI HI AE 07 88 55 00 D4 EC D1 09 07 49 83 6E 4F 8E 8C 99 7E A5 A2 A4 A5 9E  

テレメトリ   内 容        換算算値 単 位
3C	磁気センサーZ軸=	35784.3	[nT]
3D	磁気センサX軸	=	64215.7	[nT]
4A	太陽電池発生電流=	1078.4	[mA]
4B	B充放電電流	=	-451.6	[mA]
4C	B端子電圧	=	15.3	[V]
4D	B中間端子電圧	=	6.7	[V]
5A	バス電圧	=	15.0	[V]
5B	JTA送信電力	=	720.9	[mW]
5C 	構体温度1	=	17.8	[℃]
5D	構体温度2	=	19.0	[℃]
6A	構体温度3	=	18.2	[℃]
6B	構体温度4	=	17.8	[℃]
6C	Bセル温度	=	20.5	[℃]

 ========================== FO-29(ふじ3号)のテレメトリ分析、QSO情報等 =====================
   
 3)[jamsat-bb:12542]にてJAS-1b(FO-20)運用についてJN1GKZ新井さんのコメントがありましたので
   転載させて頂きました。

 WH6BIE KelyさんがFO-20にQRVされています。27日 13時過ぎのパスで良好
にQSOできました。このパスでは九州まで開けていましたが、QSOしたのは私
だけのようでした。
 毎週末、FO-20の日本とのパスにQRVするとのことでしたので、探してみて
下さい。

JN1GKZ 新井
   jn1gkz@jamsat.or.jp     http://www.ne.jp/asahi/m-arai/gkz/
-------------
JAMSAT BB Mailing List
http://www.jamsat.or.jp/infoserv/mlist.html
 =================================================================================================
 
 4)JARL のホームページに運用予定が記載されていましたのでご紹介します.
       ( http://www.jarl.or.jp/Japanese/3_Fuji/new/uy.htm )
       
        *** 運用予定について ***

        当分の間     アナログ系運用

  * なお,運用予定は都合により,変更することがありますの,であらかじめご了承願います。

 照会先 : lab@jarl.or.jp

 最新の情報はテレホンサービス(03−3942−1000)をお聞きください。  
  
  ふじ2号(JAS−1b)の運用 

 CWテレメトリの機能に障害が発生しています。詳細は「ふじ2号」の現況をご覧ください。
 運用はアナログ系の連続運用とします。 
     
-----------------------    FO−20(JAS-1b)道要素   -------------------------
  
  ■ 軌道要素1 :出典はFO-29「ふじ3号」に同じ.
  
FO-20
1 20480U 90013C   02337.91046533  .00000010  00000-0  91551-4 0 04488
2 20480 099.0348 310.1161 0540309 177.4111 182.9987 12.83326373600687
 
  ■ 軌道要素2 :出典はFO−29「ふじ3号」に同じ.
               
Satellite: FO-20
Catalog number: 20480
Epoch time:      02337.91046533
Element set:    0448
Inclination:      099.0348 deg
RA of node:       310.1161 deg
Eccentricity:    0.0540309
Arg of perigee:   177.4111 deg
Mean anomaly:     182.9987 deg
Mean motion:   12.83326373 rev/day
Decay rate:        1.0e-07 rev/day^2
Epoch rev:           60068
Checksum:              281

-------------------------------------------------------------------------------- 
         ■ ふじ2号/FO−20/JAS-1b ■      
            
          「ふじ2号」 現況                                                                                  
             
   JAS-1b(ふじ2号)のCWテレメトリ信号に,1997年10月12日12時(JST)の
 日本上空通過時,3桁の数字が繰り返されるはずが3個の長音の繰り返しとなっているという
 異常が発見されました。この不具合は次の通過時からは回復していましたが13日15時20分の
 通過時に再び観測されました。現在はA0の送信が続いています。衛星のアナログ系中継モード
 動作は異常が無く,正常時のテレメトリ内容からは衛星の動作に異常は認められません。従って,
 直ちに衛星のミッションに影響することは無いと予想されますので,当面はアナログ系中継
 モードを継続します。衛星は既に打ち上げてから7年8ヶ月を経ておりますので,今後は監視を
 強化する予定です。アマチュア各位のレポートをお待ちします。
 -------------------------------------------------------------------------------- 
  1997年10月14日 00時35分 確認のテレメトリ音 151 KB (A0) 
  1997年10月14日 11時10分 確認のテレメトリ音 216 KB (異常キーイング) 

  以上 JARLのホ−ムページの http://www.jarl.or.jp/Japanese/3_Fuji/new/fuji.htm

===================== FO-20 ふじ2号 のテレメトリ観測結果 ====================

  3月8日(金)18:18(JST)の観測結果ではテレメトリは、以前観測した単一周波数の
正弦波がドップラー効果で周波数がずれていくのみの状態でした。
                                         
   =============   JAS-2 (ふじ3号)と現在までの情報   ===========
  
  A.電話によるふじ3号の運用情報
      社団法人日本アマチュア連盟によるサービス
           TEL .   03− 3942 − 1000
  B.アマチュア無線FAXサービス
      JARLによるふじ3号の軌道情報(オービットカレンダー)
         FAX No.  03− 3233 −0055
  C.WWWブラウザで情報を簡単に見れる人のためにJAS-1,JAS‐1b,
   JAS‐2(ふじ1号からふじ3号の衛星としての運用されるまでの名前)の
   概要、打ち上げまでの状況、運用中における状況を説明したホームページを
   紹介しておきます.

     社団法人日本アマチュア無線連盟(JARL)のホームページ

         http://www.jarl.or.jp/Japanese/3_Fuji/new/fuji.htm
     http://www.jarl.or.jp/Japanese/3_Fuji/history/history.htm
 
     宇宙開発事業団(NASDA)ホームページ 

      1)「ふじ1号」(JAS−1:FO−12)
         http://spaceboy.nasda.go.jp/lib/satellites/jas/j/jas_01_j.html
         http://spaceboy.nasda.go.jp/lib/satellites/jas/g/h_15_017.jpg
         http://spaceboy.nasda.go.jp/lib/satellites/jas/e/jas_01_e.html
         http://space.nasda.go.jp/db/kaihatu/eisei/eisei_j/jas_1_a_j.html#2
         http://spaceboy.nasda.go.jp/note/eisei/j/eis15h_j.html#eis15h_01_j
         http://www.nasda.go.jp/lib/nasda-news/1996/12/resai_j.html
         http://spaceboy.nasda.go.jp/lib/satellites/jas/g/h_15_007.jpg
         http://www.nasda.go.jp/press/2002/02/pb_020220_j.html

      2)「ふじ2号」(JAS−1b:FO−20)
         http://spaceboy.nasda.go.jp/lib/satellites/mos/g/h_21_018.jpg
         http://spaceboy.nasda.go.jp/lib/satellites/mos/g/h_21_019.jpg
         http://spaceboy.nasda.go.jp/note/eisei/j/eis15h_j.html#eis15h_01_j

      3)「ふじ3号」(JAS−2:FO−29)
         http://www.nasda.go.jp/lib/nasda-news/1996/09/h2_j.html
         http://www.nasda.go.jp/pr/services/presskit/h2-f4/p-h2_3_e.html
         http://space.nasda.go.jp/db/kaihatu/eisei/eisei_j/jas-2_j.html
         http://spaceboy.nasda.go.jp/note/eisei/j/eis15i_j.html#eis15i_03_j

  D.JAMSATによる軌道情報の活用
        JAMSATのホームページまたはjamsat−kepsの軌道要素より
      衛星の軌道情報を得る.
     JAMSATホームページ
               URL    http://www.jamsat.or.jp
       上記ホームページでは各地で行われるアマチュア通信衛星に関する
      ミューティングのお知らせや世界のアマチュア衛星に関する情報が
      満載されています.

 ========================================================================  
     JAMSATのメンバーのご協力によりJH6MME(高山 秀造)が
    執筆・編集を担当しております.ご指摘の意見、疑問やこのようにしたら
    というアイデアがありましたら小さなことでもかまいませんので気軽に下
    記アドレスまでご連絡ください.jamsat−newsからjas2
    infoへの転載をJH4PHW局坂井さんに担当して頂いております.  
                  E-mail : jh6mme@jamsat.or.jp : jh4phw@jamsat.or.jp
 ===============================   END  ===============================